Charleston, SC

3:23 AM EST on November 24, 2017 (GMT -0500)
Charleston Executive

Weather History for KJZI - February, 2014

Change the Weather History Date:

Saturday, February 1, 2014

  Actual Average (KCHS) Record (KCHS)
Temperature  
Mean Temperature 48 °F -  
Max Temperature 53 °F 61 °F 82 °F (2002)
Min Temperature 44 °F 38 °F 21 °F (1977)
Degree Days  
Heating Degree Days 16    
Moisture  
Dew Point 48 °F    
Average Humidity 93    
Maximum Humidity 100    
Minimum Humidity 82    
Precipitation  
Precipitation 0.00 in - - ()
Sea Level Pressure  
Sea Level Pressure 30.16 in    
Wind  
Wind Speed 3 mph (NNE)    
Max Wind Speed 8 mph    
Max Gust Speed -    
Visibility 5 miles    
Events Rain    
Averages and records for this station are not official NWS values.
T = Trace of Precipitation, MM = Missing Value Source: NWS Daily Summary

Daily Weather History Graph

Daily Weather History Graph

Search for Another Location

Airport or City:

Trip Planner

Search our weather history database for the weather conditions in past years. The results will help you decide how hot, cold, wet, or windy it might be!

Date:

Astronomy

Feb. 01, 2014 Rise Set
Actual Time 7:14 AM EST 5:52 PM EST
Civil Twilight 6:48 AM EST 6:18 PM EST
Nautical Twilight 6:19 AM EST 6:48 PM EST
Astronomical Twilight 5:50 AM EST 7:17 PM EST
Moon 8:12 AM EST (2/1) 8:15 PM EST (2/1)
Length of Visible Light 11h 29m
Length of Day
10h 38m
Waxing Crescent, 5% of the Moon is Illuminated
Feb 1
Waxing Crescent
Feb 6
First Quarter
Feb 14
Full
Feb 22
Last Quarter
Mar 1
New

Hourly Weather History & Observations

Time (EST) Temp. Windchill Dew Point Humidity Pressure Visibility Wind Dir Wind Speed Gust Speed Precip Events Conditions
12:15 AM 46.4 °F - 44.6 °F 93% 30.19 in 4.0 mi Calm Calm - 0.00 in   Overcast
12:35 AM 44.6 °F - 44.6 °F 100% 30.19 in 5.0 mi Calm Calm - 0.00 in   Overcast
12:55 AM 46.4 °F - 44.6 °F 93% 30.19 in 5.0 mi Calm Calm - 0.00 in   Mostly Cloudy
1:15 AM 46.4 °F 45.2 °F 44.6 °F 93% 30.19 in 6.0 mi NNW 3.5 mph - 0.00 in   Overcast
1:35 AM 46.4 °F 45.2 °F 44.6 °F 93% 30.19 in 7.0 mi North 3.5 mph - 0.00 in   Overcast
1:55 AM 46.4 °F - 46.4 °F 100% 30.18 in 7.0 mi Calm Calm - 0.00 in   Overcast
2:15 AM 48.2 °F - 46.4 °F 93% 30.17 in 8.0 mi North 4.6 mph - 0.00 in   Overcast
2:35 AM 46.4 °F 45.2 °F 46.4 °F 100% 30.16 in 8.0 mi North 3.5 mph - 0.00 in   Overcast
2:55 AM 48.2 °F - 46.4 °F 93% 30.16 in 10.0 mi North 6.9 mph - 0.00 in   Overcast
3:15 AM 48.2 °F - 46.4 °F 93% 30.15 in 10.0 mi North 6.9 mph - 0.00 in   Overcast
3:35 AM 50.0 °F - 44.6 °F 82% 30.15 in 10.0 mi North 5.8 mph - 0.00 in   Overcast
3:55 AM 48.2 °F - 44.6 °F 87% 30.15 in 10.0 mi North 4.6 mph - 0.00 in   Overcast
4:15 AM 50.0 °F - 46.4 °F 87% 30.15 in 10.0 mi NNE 3.5 mph - 0.00 in   Overcast
4:35 AM 50.0 °F - 44.6 °F 82% 30.15 in 10.0 mi NNE 3.5 mph - 0.00 in   Overcast
4:55 AM 50.0 °F - 44.6 °F 82% 30.14 in 9.0 mi NNE 4.6 mph - 0.00 in   Overcast
5:15 AM 50.0 °F - 44.6 °F 82% 30.14 in 3.0 mi NNE 5.8 mph - 0.00 in Rain Light Rain
5:35 AM 48.2 °F - 44.6 °F 87% 30.14 in 7.0 mi NNE 5.8 mph - 0.00 in   Overcast
5:55 AM 48.2 °F - 44.6 °F 87% 30.14 in 8.0 mi Calm Calm - 0.00 in   Overcast
6:15 AM 48.2 °F - 44.6 °F 87% 30.14 in 10.0 mi NE 8.1 mph - 0.00 in   Overcast
6:35 AM 48.2 °F - 44.6 °F 87% 30.15 in 8.0 mi NNE 5.8 mph - 0.00 in   Overcast
6:55 AM 48.2 °F - 44.6 °F 87% 30.16 in 7.0 mi Calm Calm - 0.00 in   Overcast
7:15 AM 48.2 °F - 46.4 °F 93% 30.16 in 7.0 mi Calm Calm - 0.00 in   Light Drizzle
7:35 AM 48.2 °F - 46.4 °F 93% 30.17 in 4.0 mi North 4.6 mph - 0.00 in Rain Light Rain
7:55 AM 48.2 °F - 46.4 °F 93% 30.17 in 2.0 mi North 3.5 mph - 0.00 in Rain Light Rain
8:15 AM 48.2 °F - 46.4 °F 93% 30.18 in 9.0 mi NNE 5.8 mph - 0.00 in   Overcast
8:35 AM 48.2 °F - 46.4 °F 93% 30.18 in 5.0 mi North 8.1 mph - 0.00 in   Light Drizzle
8:55 AM 48.2 °F - 46.4 °F 93% 30.19 in 2.5 mi North 5.8 mph - 0.00 in Rain Rain
9:15 AM 48.2 °F - 46.4 °F 93% 30.19 in 3.0 mi NNE 6.9 mph - 0.00 in   Light Drizzle
9:35 AM 48.2 °F - 48.2 °F 100% 30.19 in 6.0 mi NNE 6.9 mph - 0.00 in   Overcast
9:55 AM 48.2 °F - 46.4 °F 93% 30.19 in 8.0 mi NNE 8.1 mph - 0.00 in   Overcast
10:15 AM 48.2 °F - 46.4 °F 93% 30.20 in 6.0 mi NNE 6.9 mph - 0.00 in   Overcast
10:35 AM 48.2 °F - 46.4 °F 93% 30.20 in 2.5 mi NNE 4.6 mph - 0.00 in   Overcast
10:55 AM 48.2 °F - 46.4 °F 93% 30.19 in 0.8 mi NNE 3.5 mph - 0.00 in Rain Light Rain
11:15 AM 48.2 °F - 48.2 °F 100% 30.19 in 1.2 mi Calm Calm - 0.00 in Rain Light Rain
11:35 AM 48.2 °F - 48.2 °F 100% 30.18 in 1.5 mi NNE 5.8 mph - 0.00 in Rain Rain
11:55 AM 48.2 °F - 48.2 °F 100% 30.17 in 0.5 mi Calm Calm - 0.00 in Rain Light Rain
12:15 PM 50.0 °F - 48.2 °F 94% 30.18 in 2.0 mi Calm Calm - 0.00 in Rain Light Rain
12:35 PM 48.2 °F - 48.2 °F 100% 30.16 in 0.8 mi North 6.9 mph - 0.00 in Rain Rain
12:55 PM 50.0 °F - 48.2 °F 94% 30.15 in 3.0 mi North 5.8 mph - 0.00 in   Overcast
1:15 PM 51.8 °F - 48.2 °F 88% 30.15 in 7.0 mi North 5.8 mph - 0.00 in   Overcast
1:35 PM 50.0 °F - 48.2 °F 94% 30.14 in 1.2 mi Calm Calm - 0.00 in   Overcast
1:55 PM 50.0 °F - 48.2 °F 94% 30.13 in 5.0 mi Calm Calm - 0.00 in   Overcast
2:15 PM 51.8 °F - 50.0 °F 94% 30.12 in 5.0 mi NNE 3.5 mph - 0.00 in   Overcast
2:35 PM 51.8 °F - 50.0 °F 94% 30.12 in 5.0 mi NNE 5.8 mph - 0.00 in   Overcast
2:55 PM 51.8 °F - 50.0 °F 94% 30.11 in 6.0 mi Calm Calm - 0.00 in   Overcast
3:15 PM 53.6 °F - 51.8 °F 94% 30.11 in 5.0 mi Calm Calm - 0.00 in   Overcast
3:35 PM 53.6 °F - 51.8 °F 94% 30.11 in 6.0 mi Calm Calm - 0.00 in   Overcast
3:55 PM 53.6 °F - 51.8 °F 94% 30.11 in 5.0 mi Calm Calm - 0.00 in   Overcast
4:15 PM 53.6 °F - 51.8 °F 94% 30.10 in 7.0 mi Calm Calm - 0.00 in   Overcast
4:35 PM 53.6 °F - 51.8 °F 94% 30.11 in 7.0 mi NW 5.8 mph - 0.00 in   Overcast
4:55 PM 53.6 °F - 51.8 °F 94% 30.11 in 5.0 mi North 3.5 mph - 0.00 in   Overcast
5:15 PM 53.6 °F - 51.8 °F 94% 30.11 in 6.0 mi Calm Calm - 0.00 in   Overcast
5:35 PM 53.6 °F - 51.8 °F 94% 30.12 in 5.0 mi Calm Calm - 0.00 in   Overcast
5:55 PM 53.6 °F - 50.0 °F 88% 30.12 in 4.0 mi Calm Calm - 0.00 in   Overcast
6:15 PM 53.6 °F - 50.0 °F 88% 30.13 in 5.0 mi Calm Calm - 0.00 in   Overcast
6:35 PM 51.8 °F - 50.0 °F 94% 30.14 in 5.0 mi Calm Calm - 0.00 in   Overcast
6:55 PM 51.8 °F - 50.0 °F 94% 30.15 in 4.0 mi Calm Calm - 0.00 in   Overcast
7:15 PM 51.8 °F - 50.0 °F 94% 30.14 in 4.0 mi Calm Calm - 0.00 in   Overcast
7:35 PM 51.8 °F - 50.0 °F 94% 30.15 in 3.0 mi Calm Calm - 0.00 in   Overcast
7:55 PM 51.8 °F - 50.0 °F 94% 30.16 in 2.5 mi Calm Calm - 0.00 in   Overcast
8:15 PM 51.8 °F - 50.0 °F 94% 30.16 in 1.5 mi Calm Calm - 0.00 in   Overcast
8:35 PM 51.8 °F - 48.2 °F 88% 30.17 in 1.0 mi North 4.6 mph - 0.00 in   Mist
8:55 PM 50.0 °F - 50.0 °F 100% 30.16 in 0.8 mi Calm Calm - 0.00 in   Overcast
9:15 PM 51.8 °F - 50.0 °F 94% 30.16 in 1.2 mi Calm Calm - 0.00 in   Overcast
9:35 PM 51.8 °F - 50.0 °F 94% 30.17 in 1.8 mi Calm Calm - 0.00 in   Overcast
9:55 PM 51.8 °F - 48.2 °F 88% 30.17 in 2.5 mi Calm Calm - 0.00 in   Overcast
10:15 PM 50.0 °F - 48.2 °F 94% 30.17 in 3.0 mi Calm Calm - 0.00 in   Overcast
10:35 PM 50.0 °F - 48.2 °F 94% 30.16 in 3.0 mi Calm Calm - 0.00 in   Overcast
10:55 PM 50.0 °F - 48.2 °F 94% 30.17 in 3.0 mi Calm Calm - 0.00 in   Overcast
11:15 PM 50.0 °F - 48.2 °F 94% 30.16 in 3.0 mi Calm Calm - 0.00 in   Overcast
11:35 PM 50.0 °F - 48.2 °F 94% 30.16 in 2.5 mi Calm Calm - 0.00 in   Overcast
11:55 PM 50.0 °F - 48.2 °F 94% 30.16 in 2.5 mi Calm Calm - 0.00 in   Overcast